Вернуться в каталог

YUNYAO-1 33

АктивенПогодаSSO
NORAD 61898·PAYLOAD·🇨🇳 China
Это название спутника еще не подтверждено официальными источниками.

Запущен Nov 11, 2024 с Jiuquan Satellite Launch Center

Loading…

Ближайшие Пролёты (ближайшие 24 часа)

TLE

СвежийSource: Space-Track

Эпоха: Sep 14, 2026, 22:03 UTC

1 61898U 24205E   26257.91901571  .00006652  00000-0  37548-3 0  9999
2 61898  97.4039 325.8279 0055816  53.5538 307.0819 15.12119356101774

Отслеживайте YUNYAO-1 33 в реальном времени с AllMySat

Download on the App Store